Time,TemperatureF,DewpointF,PressureIn,WindDirection,WindDirectionDegrees,WindSpeedMPH,WindSpeedGustMPH,Humidity,HourlyPrecipIn,Conditions,Clouds,dailyrainin,SoftwareType,DateUTC
2013-09-25 00:00:00,49.8,48.0,30.08,NNE,20,2.0,3.0,94,0.03,,,0.22,weatherlink.com 1.10,2013-09-25 07:00:00,
2013-09-25 00:15:00,49.8,48.0,30.08,North,5,0.0,3.0,94,0.02,,,0.00,weatherlink.com 1.10,2013-09-25 07:15:00,
2013-09-25 00:29:00,49.9,48.0,30.08,North,5,0.0,2.0,94,0.01,,,0.00,weatherlink.com 1.10,2013-09-25 07:29:00,
2013-09-25 00:44:00,50.0,49.0,30.08,West,259,0.0,2.0,95,0.01,,,0.00,weatherlink.com 1.10,2013-09-25 07:44:00,
2013-09-25 01:00:00,49.9,48.0,30.08,West,259,1.0,1.0,94,0.00,,,0.00,weatherlink.com 1.10,2013-09-25 08:00:00,
2013-09-25 01:14:00,49.7,48.0,30.08,West,259,0.0,1.0,95,0.00,,,0.00,weatherlink.com 1.10,2013-09-25 08:14:00,
2013-09-25 01:30:00,49.5,48.0,30.09,West,267,0.0,3.0,95,0.00,,,0.00,weatherlink.com 1.10,2013-09-25 08:30:00,
2013-09-25 01:44:00,49.3,48.0,30.08,West,267,0.0,1.0,95,0.00,,,0.00,weatherlink.com 1.10,2013-09-25 08:44:00,
2013-09-25 02:00:00,49.2,48.0,30.09,West,267,1.0,1.0,95,0.00,,,0.00,weatherlink.com 1.10,2013-09-25 09:00:00,
2013-09-25 02:15:00,49.5,48.0,30.09,West,276,2.0,4.0,96,0.00,,,0.00,weatherlink.com 1.10,2013-09-25 09:15:00,
2013-09-25 02:30:00,49.7,49.0,30.09,WNW,302,1.0,3.0,96,0.00,,,0.00,weatherlink.com 1.10,2013-09-25 09:30:00,
2013-09-25 02:44:00,49.9,49.0,30.09,NW,313,2.0,4.0,96,0.00,,,0.00,weatherlink.com 1.10,2013-09-25 09:44:00,
2013-09-25 03:00:00,50.1,49.0,30.09,NW,311,1.0,4.0,96,0.00,,,0.00,weatherlink.com 1.10,2013-09-25 10:00:00,
2013-09-25 03:15:00,50.1,49.0,30.09,NW,311,0.0,3.0,96,0.00,,,0.00,weatherlink.com 1.10,2013-09-25 10:15:00,
2013-09-25 03:30:00,50.2,49.0,30.09,NW,315,1.0,4.0,96,0.00,,,0.00,weatherlink.com 1.10,2013-09-25 10:30:00,
2013-09-25 03:45:00,50.2,49.0,30.09,WNW,301,0.0,3.0,96,0.00,,,0.00,weatherlink.com 1.10,2013-09-25 10:45:00,
2013-09-25 04:00:00,50.2,49.0,30.09,WNW,302,2.0,3.0,96,0.00,,,0.00,weatherlink.com 1.10,2013-09-25 11:00:00,
2013-09-25 04:15:00,50.2,49.0,30.09,WNW,296,1.0,3.0,96,0.00,,,0.00,weatherlink.com 1.10,2013-09-25 11:15:00,
2013-09-25 04:30:00,50.1,49.0,30.09,WNW,296,0.0,4.0,96,0.00,,,0.00,weatherlink.com 1.10,2013-09-25 11:30:00,
2013-09-25 04:45:00,50.2,49.0,30.10,WNW,296,2.0,4.0,96,0.00,,,0.00,weatherlink.com 1.10,2013-09-25 11:45:00,
2013-09-25 04:59:00,50.2,49.0,30.10,NW,315,4.0,5.0,96,0.00,,,0.00,weatherlink.com 1.10,2013-09-25 11:59:00,
2013-09-25 05:15:00,50.1,49.0,30.10,NNW,330,3.0,5.0,97,0.00,,,0.00,weatherlink.com 1.10,2013-09-25 12:15:00,
2013-09-25 05:30:00,50.2,49.0,30.10,WNW,296,3.0,5.0,97,0.00,,,0.00,weatherlink.com 1.10,2013-09-25 12:30:00,
2013-09-25 05:44:00,50.3,50.0,30.10,WNW,296,8.0,8.0,97,0.00,,,0.00,weatherlink.com 1.10,2013-09-25 12:44:00,
2013-09-25 06:00:00,50.4,50.0,30.10,NW,306,4.0,5.0,97,0.00,,,0.00,weatherlink.com 1.10,2013-09-25 13:00:00,
2013-09-25 06:15:00,50.5,50.0,30.10,WNW,299,2.0,5.0,97,0.00,,,0.00,weatherlink.com 1.10,2013-09-25 13:15:00,
2013-09-25 06:30:00,50.6,50.0,30.11,NW,313,2.0,5.0,97,0.00,,,0.00,weatherlink.com 1.10,2013-09-25 13:30:00,
2013-09-25 06:44:00,50.4,50.0,30.11,NW,307,1.0,4.0,97,0.00,,,0.00,weatherlink.com 1.10,2013-09-25 13:44:00,
2013-09-25 07:00:00,50.6,50.0,30.11,WNW,303,2.0,5.0,97,0.00,,,0.00,weatherlink.com 1.10,2013-09-25 14:00:00,
2013-09-25 07:14:00,50.8,50.0,30.12,NW,314,2.0,5.0,97,0.00,,,0.00,weatherlink.com 1.10,2013-09-25 14:14:00,
2013-09-25 07:30:00,50.7,50.0,30.12,NW,311,2.0,5.0,97,0.00,,,0.00,weatherlink.com 1.10,2013-09-25 14:30:00,
2013-09-25 07:45:00,50.7,50.0,30.12,WNW,302,1.0,5.0,97,0.00,,,0.00,weatherlink.com 1.10,2013-09-25 14:45:00,
2013-09-25 08:00:00,51.0,50.0,30.13,NW,310,2.0,7.0,97,0.00,,,0.00,weatherlink.com 1.10,2013-09-25 15:00:00,
2013-09-25 08:15:00,51.3,51.0,30.13,NW,321,5.0,9.0,97,0.00,,,0.00,weatherlink.com 1.10,2013-09-25 15:15:00,
2013-09-25 08:30:00,51.5,50.0,30.13,WNW,284,3.0,9.0,96,0.00,,,0.00,weatherlink.com 1.10,2013-09-25 15:30:00,
2013-09-25 08:45:00,51.4,50.0,30.14,WNW,298,5.0,12.0,95,0.00,,,0.00,weatherlink.com 1.10,2013-09-25 15:45:00,
2013-09-25 09:00:00,51.6,50.0,30.14,NW,306,3.0,10.0,94,0.00,,,0.00,weatherlink.com 1.10,2013-09-25 16:00:00,
2013-09-25 09:15:00,52.8,51.0,30.15,NNW,343,5.0,11.0,94,0.00,,,0.00,weatherlink.com 1.10,2013-09-25 16:15:00,
2013-09-25 09:30:00,53.0,51.0,30.15,NW,307,4.0,11.0,92,0.00,,,0.00,weatherlink.com 1.10,2013-09-25 16:30:00,
2013-09-25 09:46:00,53.3,51.0,30.15,WNW,284,9.0,10.0,92,0.00,,,0.00,weatherlink.com 1.10,2013-09-25 16:46:00,
2013-09-25 10:01:00,53.4,51.0,30.15,WNW,288,5.0,13.0,92,0.00,,,0.00,weatherlink.com 1.10,2013-09-25 17:01:00,
2013-09-25 10:15:00,54.0,52.0,30.15,NW,314,5.0,9.0,91,0.00,,,0.00,weatherlink.com 1.10,2013-09-25 17:15:00,
2013-09-25 10:30:00,54.1,51.0,30.15,NW,311,9.0,14.0,89,0.00,,,0.00,weatherlink.com 1.10,2013-09-25 17:30:00,
2013-09-25 10:45:00,53.9,51.0,30.16,NNW,330,10.0,12.0,90,0.00,,,0.00,weatherlink.com 1.10,2013-09-25 17:45:00,
2013-09-25 11:00:00,54.4,51.0,30.16,NW,322,13.0,14.0,88,0.00,,,0.00,weatherlink.com 1.10,2013-09-25 18:00:00,
2013-09-25 11:15:00,55.2,51.0,30.16,NW,304,7.0,12.0,86,0.00,,,0.00,weatherlink.com 1.10,2013-09-25 18:15:00,
2013-09-25 11:31:00,55.1,51.0,30.16,NW,306,6.0,14.0,85,0.00,,,0.00,weatherlink.com 1.10,2013-09-25 18:31:00,
2013-09-25 11:46:00,55.1,50.0,30.16,WNW,289,8.0,15.0,84,0.00,,,0.00,weatherlink.com 1.10,2013-09-25 18:46:00,
2013-09-25 12:01:00,55.1,51.0,30.16,NNW,347,3.0,13.0,86,0.00,,,0.00,weatherlink.com 1.10,2013-09-25 19:01:00,
2013-09-25 12:15:00,54.8,50.0,30.16,WNW,296,8.0,14.0,85,0.00,,,0.00,weatherlink.com 1.10,2013-09-25 19:15:00,
2013-09-25 12:30:00,55.3,51.0,30.17,NW,306,13.0,15.0,85,0.00,,,0.00,weatherlink.com 1.10,2013-09-25 19:30:00,
2013-09-25 12:45:00,55.1,51.0,30.17,WNW,298,4.0,16.0,85,0.00,,,0.00,weatherlink.com 1.10,2013-09-25 19:45:00,
2013-09-25 13:00:00,55.2,51.0,30.17,NW,305,11.0,16.0,84,0.00,,,0.00,weatherlink.com 1.10,2013-09-25 20:00:00,
2013-09-25 13:16:00,55.7,51.0,30.17,WNW,287,4.0,14.0,83,0.00,,,0.00,weatherlink.com 1.10,2013-09-25 20:16:00,
2013-09-25 13:31:00,56.4,51.0,30.17,WNW,284,9.0,15.0,81,0.00,,,0.00,weatherlink.com 1.10,2013-09-25 20:31:00,
2013-09-25 13:46:00,56.8,50.0,30.17,West,268,5.0,16.0,79,0.00,,,0.00,weatherlink.com 1.10,2013-09-25 20:46:00,
2013-09-25 14:01:00,56.8,50.0,30.17,WNW,284,8.0,16.0,78,0.00,,,0.00,weatherlink.com 1.10,2013-09-25 21:01:00,
2013-09-25 14:15:00,57.5,50.0,30.17,West,270,4.0,13.0,77,0.00,,,0.00,weatherlink.com 1.10,2013-09-25 21:15:00,
2013-09-25 14:31:00,58.2,50.0,30.17,NW,311,4.0,11.0,75,0.00,,,0.00,weatherlink.com 1.10,2013-09-25 21:31:00,
2013-09-25 14:46:00,58.6,51.0,30.17,WSW,254,11.0,14.0,77,0.00,,,0.00,weatherlink.com 1.10,2013-09-25 21:46:00,
2013-09-25 15:01:00,58.1,51.0,30.18,West,276,6.0,12.0,77,0.00,,,0.00,weatherlink.com 1.10,2013-09-25 22:01:00,
2013-09-25 15:16:00,58.5,51.0,30.17,NW,326,5.0,14.0,77,0.00,,,0.00,weatherlink.com 1.10,2013-09-25 22:16:00,
2013-09-25 15:31:00,58.5,51.0,30.18,West,262,11.0,14.0,75,0.00,,,0.00,weatherlink.com 1.10,2013-09-25 22:31:00,
2013-09-25 15:45:00,58.3,50.0,30.18,West,276,5.0,13.0,74,0.00,,,0.00,weatherlink.com 1.10,2013-09-25 22:45:00,
2013-09-25 16:01:00,58.6,51.0,30.18,WNW,284,8.0,13.0,75,0.00,,,0.00,weatherlink.com 1.10,2013-09-25 23:01:00,
2013-09-25 16:16:00,59.0,50.0,30.19,NW,318,2.0,10.0,73,0.00,,,0.00,weatherlink.com 1.10,2013-09-25 23:16:00,
2013-09-25 16:31:00,59.3,51.0,30.19,WNW,298,4.0,9.0,73,0.00,,,0.00,weatherlink.com 1.10,2013-09-25 23:31:00,
2013-09-25 16:46:00,58.7,50.0,30.19,WSW,238,2.0,12.0,72,0.00,,,0.00,weatherlink.com 1.10,2013-09-25 23:46:00,
2013-09-25 17:01:00,58.7,49.0,30.19,West,273,4.0,8.0,71,0.00,,,0.00,weatherlink.com 1.10,2013-09-26 00:01:00,
2013-09-25 17:16:00,58.9,49.0,30.19,WNW,288,6.0,8.0,71,0.00,,,0.00,weatherlink.com 1.10,2013-09-26 00:16:00,
2013-09-25 17:31:00,59.2,49.0,30.19,WNW,296,4.0,6.0,69,0.00,,,0.00,weatherlink.com 1.10,2013-09-26 00:31:00,
2013-09-25 17:46:00,58.8,49.0,30.20,WNW,295,2.0,8.0,70,0.00,,,0.00,weatherlink.com 1.10,2013-09-26 00:46:00,
2013-09-25 18:01:00,59.3,49.0,30.20,WNW,296,2.0,4.0,69,0.00,,,0.00,weatherlink.com 1.10,2013-09-26 01:01:00,
2013-09-25 18:16:00,59.2,49.0,30.19,WNW,291,3.0,4.0,69,0.00,,,0.00,weatherlink.com 1.10,2013-09-26 01:16:00,
2013-09-25 18:31:00,59.1,49.0,30.19,WNW,292,0.0,3.0,69,0.00,,,0.00,weatherlink.com 1.10,2013-09-26 01:31:00,
2013-09-25 18:46:00,58.5,49.0,30.20,WNW,292,2.0,3.0,71,0.00,,,0.00,weatherlink.com 1.10,2013-09-26 01:46:00,
2013-09-25 19:01:00,55.4,49.0,30.20,WNW,292,0.0,2.0,79,0.00,,,0.00,weatherlink.com 1.10,2013-09-26 02:01:00,
2013-09-25 19:16:00,53.3,48.0,30.20,WNW,292,1.0,3.0,83,0.00,,,0.00,weatherlink.com 1.10,2013-09-26 02:16:00,
2013-09-25 19:31:00,51.6,47.0,30.20,WNW,292,0.0,2.0,85,0.00,,,0.00,weatherlink.com 1.10,2013-09-26 02:31:00,
2013-09-25 19:46:00,50.5,47.0,30.21,WNW,292,0.0,0.0,87,0.00,,,0.00,weatherlink.com 1.10,2013-09-26 02:46:00,
2013-09-25 20:01:00,49.8,46.0,30.21,WNW,292,0.0,0.0,88,0.00,,,0.00,weatherlink.com 1.10,2013-09-26 03:01:00,
2013-09-25 20:16:00,48.5,46.0,30.21,WNW,292,2.0,2.0,89,0.00,,,0.00,weatherlink.com 1.10,2013-09-26 03:16:00,
2013-09-25 20:46:00,48.2,46.0,30.22,WNW,292,0.0,2.0,92,0.00,,,0.00,weatherlink.com 1.10,2013-09-26 03:46:00,
2013-09-25 21:01:00,47.3,45.0,30.22,WNW,293,2.0,3.0,91,0.00,,,0.00,weatherlink.com 1.10,2013-09-26 04:01:00,
2013-09-25 21:16:00,46.8,45.0,30.23,NNW,342,1.0,4.0,94,0.00,,,0.00,weatherlink.com 1.10,2013-09-26 04:16:00,
2013-09-25 21:31:00,46.1,44.0,30.23,WNW,298,4.0,4.0,93,0.00,,,0.00,weatherlink.com 1.10,2013-09-26 04:31:00,
2013-09-25 21:46:00,46.8,45.0,30.23,North,360,1.0,5.0,94,0.00,,,0.00,weatherlink.com 1.10,2013-09-26 04:46:00,
2013-09-25 22:01:00,47.8,46.0,30.23,North,355,1.0,3.0,92,0.00,,,0.00,weatherlink.com 1.10,2013-09-26 05:01:00,
2013-09-25 22:16:00,46.8,44.0,30.23,North,355,0.0,3.0,91,0.00,,,0.00,weatherlink.com 1.10,2013-09-26 05:16:00,
2013-09-25 22:31:00,46.2,44.0,30.23,North,355,0.0,2.0,92,0.00,,,0.00,weatherlink.com 1.10,2013-09-26 05:31:00,
2013-09-25 22:46:00,46.3,44.0,30.23,North,355,0.0,2.0,93,0.00,,,0.00,weatherlink.com 1.10,2013-09-26 05:46:00,
2013-09-25 23:01:00,45.8,44.0,30.24,WNW,296,0.0,4.0,94,0.00,,,0.00,weatherlink.com 1.10,2013-09-26 06:01:00,
2013-09-25 23:16:00,47.9,47.0,30.24,East,94,0.0,6.0,96,0.00,,,0.00,weatherlink.com 1.10,2013-09-26 06:16:00,
2013-09-25 23:31:00,47.7,46.0,30.24,East,86,3.0,5.0,95,0.00,,,0.00,weatherlink.com 1.10,2013-09-26 06:31:00,
2013-09-25 23:46:00,46.9,45.0,30.24,North,360,2.0,3.0,94,0.00,,,0.00,weatherlink.com 1.10,2013-09-26 06:46:00,